ABY121 OMSJ-OKKK

Flight info

Callsign ABY121
Flight time N/A
Altitude 38000
Route RIDAP M557 TUMAK M600 KUMBO/N0390F240 A453 DEBTI
Aircraft A320/M-SDE3FGHIRWY/LB1

Departure

Time 2026-05-04 15:24
Airport Sharjah International Airport (OMSJ)

Arrival

Time N/A
Airport Kuwait International Airport (OKKK)
Time Latitude Longitude Altitude Speed Heading
2026-05-04 14:54 25.32540 55.51765 115 ft 0 kts 121°
2026-05-04 15:15 25.32547 55.51752 112 ft 2 kts 113°
2026-05-04 15:15 25.32553 55.51735 111 ft 2 kts 102°
2026-05-04 15:16 25.32548 55.51701 113 ft 2 kts 41°
2026-05-04 15:16 25.32538 55.51692 111 ft 1 kts 31°
2026-05-04 15:16 25.32537 55.51691 111 ft 0 kts 31°
2026-05-04 15:20 25.32547 55.51698 113 ft 7 kts 32°
2026-05-04 15:21 25.32601 55.51736 115 ft 9 kts 32°
2026-05-04 15:21 25.32623 55.51790 114 ft 12 kts 115°
2026-05-04 15:21 25.32507 55.51993 113 ft 17 kts 122°
2026-05-04 15:22 25.32435 55.52118 113 ft 21 kts 122°
2026-05-04 15:22 25.32357 55.52253 114 ft 21 kts 122°
2026-05-04 15:22 25.32261 55.52496 112 ft 14 kts 49°
2026-05-04 15:23 25.32336 55.52551 115 ft 12 kts 32°
2026-05-04 15:23 25.32406 55.52599 116 ft 11 kts 32°
2026-05-04 15:23 25.32493 55.52660 114 ft 18 kts 32°
2026-05-04 15:23 25.32572 55.52683 118 ft 10 kts 324°
2026-05-04 15:24 25.32957 55.52016 114 ft 114 kts 302°
2026-05-04 15:24 25.34087 55.50063 853 ft 160 kts 301°
2026-05-04 15:25 25.34694 55.49010 1387 ft 169 kts 302°
2026-05-04 15:25 25.35363 55.47847 1645 ft 191 kts 301°
2026-05-04 15:25 25.36110 55.46536 1916 ft 214 kts 302°
2026-05-04 15:26 25.36893 55.43092 2602 ft 261 kts 266°
2026-05-04 15:26 25.36740 55.41036 3346 ft 268 kts 268°
2026-05-04 15:26 25.36609 55.36831 4880 ft 278 kts 271°
2026-05-04 15:27 25.36557 55.34681 5676 ft 282 kts 271°
2026-05-04 15:27 25.36423 55.30301 7220 ft 287 kts 270°
2026-05-04 15:28 25.36259 55.25860 8802 ft 291 kts 271°
2026-05-04 15:28 25.36174 55.23616 9612 ft 293 kts 270°
2026-05-04 15:28 25.35992 55.18919 10363 ft 327 kts 270°
2026-05-04 15:29 25.35890 55.16318 10543 ft 348 kts 270°
2026-05-04 15:30 25.35433 55.05243 12881 ft 368 kts 269°
2026-05-04 15:30 25.35080 54.96648 14674 ft 377 kts 269°
2026-05-04 15:31 25.35044 54.90842 15830 ft 380 kts 279°
2026-05-04 15:31 25.35636 54.87999 16402 ft 381 kts 288°
2026-05-04 15:32 25.38072 54.79573 18164 ft 386 kts 288°
2026-05-04 15:32 25.39697 54.73886 19133 ft 390 kts 287°
2026-05-04 15:33 25.41347 54.68079 20094 ft 396 kts 287°
2026-05-04 15:34 25.43853 54.59295 21490 ft 403 kts 287°
2026-05-04 15:34 25.44726 54.56336 21946 ft 406 kts 287°
2026-05-04 15:34 25.46503 54.50370 22846 ft 411 kts 287°
2026-05-04 15:35 25.48300 54.44322 23649 ft 416 kts 287°
2026-05-04 15:35 25.49191 54.41318 24364 ft 407 kts 287°
2026-05-04 15:35 25.50066 54.38355 24959 ft 403 kts 287°
2026-05-04 15:36 25.51795 54.32460 25874 ft 403 kts 287°
2026-05-04 15:36 25.52664 54.29502 26277 ft 404 kts 287°
2026-05-04 15:36 25.53534 54.26542 26676 ft 405 kts 287°
2026-05-04 15:37 25.54406 54.23568 27061 ft 407 kts 286°
2026-05-04 15:37 25.55279 54.20586 27436 ft 408 kts 286°
2026-05-04 15:37 25.56158 54.17590 27812 ft 410 kts 286°
2026-05-04 15:37 25.57041 54.14583 28185 ft 411 kts 286°
2026-05-04 15:38 25.57927 54.11566 28552 ft 413 kts 286°
2026-05-04 15:38 25.58816 54.08536 28914 ft 414 kts 286°
2026-05-04 15:38 25.59706 54.05497 29258 ft 416 kts 286°
2026-05-04 15:38 25.60591 54.02439 29601 ft 417 kts 286°
2026-05-04 15:39 25.61466 53.99369 29915 ft 419 kts 285°
2026-05-04 15:39 25.62336 53.96290 30169 ft 420 kts 285°
2026-05-04 15:39 25.64090 53.90083 30732 ft 423 kts 285°
2026-05-04 15:40 25.64971 53.86973 31000 ft 424 kts 285°
2026-05-04 15:40 25.65856 53.83849 31268 ft 425 kts 285°
2026-05-04 15:40 25.66754 53.80693 31653 ft 423 kts 285°
2026-05-04 15:40 25.67639 53.77583 32027 ft 422 kts 285°
2026-05-04 15:41 25.68520 53.74485 32407 ft 421 kts 285°
2026-05-04 15:41 25.69397 53.71395 32772 ft 420 kts 285°
2026-05-04 15:41 25.70264 53.68310 33151 ft 419 kts 285°
2026-05-04 15:41 25.70835 53.66275 33398 ft 418 kts 285°
2026-05-04 15:42 25.71988 53.62162 33879 ft 416 kts 285°
2026-05-04 15:42 25.72557 53.60134 34092 ft 416 kts 285°
2026-05-04 15:42 25.73412 53.57077 34416 ft 415 kts 285°
2026-05-04 15:42 25.74266 53.54028 34729 ft 414 kts 285°
2026-05-04 15:43 25.75120 53.50986 35034 ft 412 kts 285°
2026-05-04 15:43 25.75973 53.47956 35359 ft 411 kts 284°
2026-05-04 15:43 25.76823 53.44935 35680 ft 409 kts 284°
2026-05-04 15:43 25.77670 53.41926 35971 ft 408 kts 284°
2026-05-04 15:44 25.78512 53.38925 36246 ft 407 kts 284°
2026-05-04 15:44 25.79349 53.35928 36512 ft 406 kts 284°
2026-05-04 15:44 25.80185 53.32936 36770 ft 406 kts 284°
2026-05-04 15:44 25.81030 53.29912 37025 ft 405 kts 284°
2026-05-04 15:45 25.81855 53.26967 37275 ft 404 kts 284°
2026-05-04 15:45 25.82697 53.23952 37517 ft 403 kts 284°
2026-05-04 15:45 25.83526 53.20977 37701 ft 404 kts 284°
2026-05-04 15:46 25.85576 53.15156 37767 ft 406 kts 290°
2026-05-04 15:46 25.87908 53.09450 37767 ft 406 kts 290°
2026-05-04 15:47 25.90232 53.03735 37760 ft 406 kts 290°
2026-05-04 15:47 25.92552 52.98026 37758 ft 406 kts 290°
2026-05-04 15:48 25.94880 52.92302 37765 ft 407 kts 290°
2026-05-04 15:48 25.98360 52.83701 37771 ft 407 kts 290°
2026-05-04 15:49 26.00672 52.77960 37765 ft 407 kts 290°
2026-05-04 15:49 26.03027 52.72237 37786 ft 408 kts 291°
2026-05-04 15:50 26.05582 52.66592 37786 ft 409 kts 292°
2026-05-04 15:50 26.08170 52.60993 37779 ft 408 kts 292°
2026-05-04 15:51 26.10722 52.55362 37781 ft 407 kts 292°
2026-05-04 15:51 26.13269 52.49682 37769 ft 407 kts 291°
2026-05-04 15:52 26.15804 52.44039 37771 ft 408 kts 292°
2026-05-04 15:52 26.18350 52.38391 37787 ft 408 kts 291°
2026-05-04 15:53 26.20893 52.32747 37789 ft 408 kts 291°
2026-05-04 15:53 26.23412 52.27101 37787 ft 407 kts 291°
2026-05-04 15:54 26.25863 52.21421 37779 ft 407 kts 290°
2026-05-04 15:54 26.28301 52.15736 37779 ft 407 kts 290°
2026-05-04 15:55 26.30748 52.10055 37780 ft 407 kts 291°
2026-05-04 15:55 26.33203 52.04372 37792 ft 407 kts 290°
2026-05-04 15:56 26.35663 51.98692 37791 ft 407 kts 290°
2026-05-04 15:56 26.37998 51.92964 37786 ft 403 kts 286°
2026-05-04 15:57 26.39954 51.87105 37788 ft 403 kts 286°
2026-05-04 15:57 26.41923 51.81254 37782 ft 403 kts 286°
2026-05-04 15:58 26.43890 51.75403 37777 ft 403 kts 286°
2026-05-04 15:58 26.45848 51.69541 37801 ft 403 kts 285°
2026-05-04 15:59 26.47821 51.63646 37796 ft 403 kts 285°
2026-05-04 15:59 26.49778 51.57792 37790 ft 402 kts 285°
2026-05-04 16:00 26.51727 51.51937 37782 ft 402 kts 285°
2026-05-04 16:00 26.53671 51.46072 37788 ft 403 kts 285°
2026-05-04 16:01 26.55618 51.40206 37792 ft 403 kts 285°
2026-05-04 16:01 26.57564 51.34335 37809 ft 403 kts 285°
2026-05-04 16:02 26.59501 51.28475 37805 ft 402 kts 285°
2026-05-04 16:03 26.62409 51.19686 37795 ft 402 kts 285°
2026-05-04 16:03 26.64349 51.13819 37791 ft 402 kts 285°
2026-05-04 16:04 26.66286 51.07954 37805 ft 403 kts 285°
2026-05-04 16:04 26.69202 50.99094 37814 ft 403 kts 284°
2026-05-04 16:05 26.71096 50.93209 37817 ft 402 kts 284°
2026-05-04 16:06 26.73900 50.84395 37816 ft 401 kts 284°
2026-05-04 16:07 26.77632 50.72657 37813 ft 400 kts 284°
2026-05-04 16:08 26.81402 50.60946 37828 ft 400 kts 285°
2026-05-04 16:09 26.86377 50.46436 37819 ft 398 kts 285°
2026-05-04 16:10 26.91369 50.36336 37814 ft 406 kts 295°